Home   Weather   Dundee   Past weeks

Flag for United Kingdom Past Weather in Dundee, Scotland, United Kingdom — Yesterday and Last 2 Weeks

Now
43 °F

Partly sunny.


Feels Like: 39 °F
Forecast: 34 / 41 °F
Wind: 6 mph from West

Location: Dundee / Riverside

Current Time: Jan 20, 2017 at 12:10:06 pm

Latest Report: Jan 20, 2017 at 11:50 am


Visibility: N/A

Pressure: 30.54 "Hg

Humidity: 87%

Dew Point: 39 °F

Location of DundeeLocation

Past Weather in Dundee — Graph

°F

Dundee Temperature Yesterday

Maximum temperature yesterday: 48 °F (at 1:20 pm)
Minimum temperature yesterday: 37 °F (at 9:20 am)
Average temperature yesterday: 43 °F

High & Low Weather Summary for the Past Weeks

 TemperatureHumidityPressure
High52 °F (Jan 17, 12:50 pm)100% (Jan 6, 8:50 am)30.57 "Hg (Jan 6, 8:50 am)
Low28 °F (Jan 13, 7:20 pm)60% (Jan 13, 1:20 pm)29.33 "Hg (Jan 11, 6:20 am)
Average42 °F89%30.06 "Hg
* Reported Jan 5 10:20 am — Jan 20 10:50 am, Dundee, Weather by CustomWeather, © 2017

Note: Actual official high and low records may vary slightly from our data, if they occured in-between our weather recording intervals... More about our weather records

Advertising

Dundee Weather History for the Previous 24 Hours

Scroll right to see more
 ConditionsComfort  
Time TempWeatherWind HumidityBarometerVisibility
10:50 am
Fri, Jan 20
43 °FPartly sunny.6 mph87%30.54 "HgN/A
10:20 am43 °FPartly sunny.7 mph87%30.54 "HgN/A
9:50 am43 °FPartly sunny.6 mph87%30.54 "HgN/A
9:20 am43 °FPartly sunny.5 mph87%30.54 "HgN/A
8:50 am43 °FPartly sunny.6 mph87%30.54 "HgN/A
8:20 am43 °FPassing clouds.7 mph87%30.54 "HgN/A
7:50 am43 °FPassing clouds.5 mph87%30.54 "HgN/A
8:20 pm
Thu, Jan 19
41 °FPassing clouds.2 mph93%30.57 "HgN/A
7:50 pm41 °FPassing clouds.2 mph93%30.57 "HgN/A
7:20 pm43 °FPassing clouds.6 mph93%30.57 "HgN/A
6:50 pm43 °FPassing clouds.5 mph93%30.57 "HgN/A
6:20 pm43 °FPassing clouds.2 mph93%30.54 "HgN/A
5:50 pm43 °FPassing clouds.2 mph93%30.54 "HgN/A
5:20 pm43 °FPassing clouds.3 mph93%30.54 "HgN/A
4:50 pm45 °FPassing clouds.5 mph93%30.54 "HgN/A
4:20 pm45 °FPassing clouds.6 mph87%30.54 "HgN/A
3:50 pm45 °FScattered clouds.6 mph93%30.54 "HgN/A
3:20 pm45 °FPassing clouds.6 mph93%30.54 "HgN/A
2:50 pm46 °FPassing clouds.7 mph87%30.54 "HgN/A
2:20 pm48 °FPassing clouds.9 mph87%30.54 "HgN/A
1:50 pm48 °FPassing clouds.10 mph82%30.54 "HgN/A
1:20 pm48 °FPassing clouds.9 mph82%30.54 "HgN/A
12:50 pm46 °FPassing clouds.9 mph87%30.54 "HgN/A
12:20 pm45 °FSunny.9 mph93%30.54 "Hg10 mi
Weather by CustomWeather, © 2017

See weather overviewHow to use our weather pages